Location: Unspecified
(49.2170°N, 0.0000°E)
Time: 08:01:27
(UTC+00:00)

A-11 Canister half - Pass Details

Date: 22 June 2019
Orbit: 1526 x 1683 km, 47.3° (Epoch: 21 July)

Event Time Altitude Azimuth Distance (km) Brightness Sun altitude
Rises 04:47:50 0° 229° (SW) 4,745 10.9 6.4°
Reaches altitude 10° 04:51:00 10° 225° (SW) 3,744 10.5 6.8°
Maximum altitude 05:00:04 54° 152° (SSE) 1,807 9.6 8.1°
Drops below altitude 10° 05:09:00 10° 78° (ENE) 3,696 13.1 9.4°
Sets 05:12:06 0° 74° (ENE) 4,681 13.6 9.9°
